Location: Lac Lasalle
(46.0398°N, 74.1576°W)
Time: 18:39:04
(UTC-05:00)

SEEDS - Pass Details

Date: 21 December 2019
Orbit: 586 x 603 km, 97.5° (Epoch: 21 January)

Event Time Altitude Azimuth Distance (km) Brightness Sun altitude
Rises 05:27:29 0° 18° (NNE) 2,862 ? -21.2°
Reaches altitude 10° 05:29:44 10° 24° (NNE) 1,955 ? -20.8°
Maximum altitude 05:33:51 48° 99° (E) 798 ? -20.1°
Drops below altitude 10° 05:37:56 10° 174° (S) 1,943 ? -19.4°
Sets 05:40:10 0° 180° (S) 2,842 ? -19.0°
